Location: Veytaux
(46.4185°N, 6.9320°E)
Time: 07:33:53
(UTC+00:00)

BREEZE-M DEB (TANK) - Pass Details

Date: 27 May 2022
Orbit: 321 x 13840 km, 49.6° (Epoch: 01 July)

Event Time Altitude Azimuth Distance (km) Brightness Sun altitude
Rises 03:00:31 0° 278° (W) 6,164 7.7 -7.2°
Reaches altitude 10° 03:06:15 10° 282° (WNW) 3,648 6.6 -6.5°
Maximum altitude 03:13:13 59° 2° (N) 698 3.6 -5.6°
Drops below altitude 10° 03:15:59 10° 84° (E) 1,468 6.0 -5.2°
Sets 03:17:24 0° 89° (E) 2,154 6.8 -5.0°
